FW3933 Weather Reports


Display with metric or nautical units.
time (UTC)temp
F
wind
direction
speed
MPH
gust
MPH
rain 1hr
in
rain 24hr
in
rain mn
in
humidity
%
barometer
mb
20240622223019 95 329 1.0 8.0 0.00 0.00 0.00 28 1012.4
20240622222054 94 318 1.0 7.0 0.00 0.00 0.00 28 1012.4
20240622221606 95 323 0.0 7.0 0.00 0.00 0.00 28 1012.5
20240622221115 96 311 0.0 5.0 0.00 0.00 0.00 28 1012.5
20240622220554 96 288 0.0 2.0 0.00 0.00 0.00 31 1012.5
20240622220054 96 265 0.0 2.0 0.00 0.00 0.00 31 1012.5
20240622215554 97 289 0.0 2.0 0.00 0.00 0.00 31 1012.6
20240622215053 97 288 0.0 2.0 0.00 0.00 0.00 31 1012.6
20240622214553 97 282 0.0 1.0 0.00 0.00 0.00 31 1012.6
20240622214053 97 273 0.0 3.0 0.00 0.00 0.00 34 1012.6
20240622213553 97 277 0.0 3.0 0.00 0.00 0.00 28 1012.6
20240622213057 98 222 0.0 3.0 0.00 0.00 0.00 28 1012.6
20240622212053 100 141 0.0 3.0 0.00 0.00 0.00 32 1012.7
20240622211550 100 100 0.0 0.0 0.00 0.00 0.00 32 1012.7
20240622211048 99 100 0.0 0.0 0.00 0.00 0.00 34 1012.6
20240622210549 99 100 0.0 0.0 0.00 0.00 0.00 36 1012.6
20240622210049 99 100 0.0 0.0 0.00 0.00 0.00 36 1012.7
20240622205549 99 100 0.0 0.0 0.00 0.00 0.00 35 1012.7
20240622205049 100 100 0.0 1.0 0.00 0.00 0.00 35 1012.7
20240622204602 100 92 0.0 1.0 0.00 0.00 0.00 35 1012.8
20240622204048 100 92 0.0 0.0 0.00 0.00 0.00 33 1012.8
20240622203547 100 92 0.0 0.0 0.00 0.00 0.00 33 1012.8
20240622203046 100 92 0.0 0.0 0.00 0.00 0.00 33 1012.8
20240622202048 99 92 0.0 1.0 0.00 0.00 0.00 34 1012.9
20240622201545 99 92 0.0 0.0 0.00 0.00 0.00 36 1012.9
20240622201042 98 92 0.0 0.0 0.00 0.00 0.00 37 1012.9
20240622200542 98 92 0.0 1.0 0.00 0.00 0.00 34 1013.0
20240622200041 98 92 0.0 1.0 0.00 0.00 0.00 33 1013.0
20240622195540 97 92 0.0 0.0 0.00 0.00 0.00 33 1013.0
20240622195042 96 92 0.0 0.0 0.00 0.00 0.00 32 1013.1
20240622194538 95 92 0.0 2.0 0.00 0.00 0.00 25 1013.1
20240622194036 94 91 0.0 2.0 0.00 0.00 0.00 31 1013.1
20240622193535 93 91 0.0 2.0 0.00 0.00 0.00 31 1013.1
20240622193036 93 89 0.0 4.0 0.00 0.00 0.00 30 1013.1
20240622192035 94 4 0.0 2.0 0.00 0.00 0.00 40 1013.2
20240622191549 93 4 0.0 2.0 0.00 0.00 0.00 37 1013.3
20240622191033 93 111 0.0 2.0 0.00 0.00 0.00 32 1013.3
20240622190534 93 119 0.0 2.0 0.00 0.00 0.00 33 1013.2
20240622190031 92 95 0.0 3.0 0.00 0.00 0.00 33 1013.3
20240622185534 92 94 0.0 3.0 0.00 0.00 0.00 33 1013.3
20240622185029 91 93 0.0 2.0 0.00 0.00 0.00 35 1013.3
20240622184528 90 98 0.0 4.0 0.00 0.00 0.00 35 1013.3
20240622184026 90 93 0.0 4.0 0.00 0.00 0.00 36 1013.3
20240622183525 89 74 0.0 3.0 0.00 0.00 0.00 37 1013.4
20240622183024 89 34 0.0 4.0 0.00 0.00 0.00 42 1013.4
20240622182023 88 170 0.0 0.0 0.00 0.00 0.00 45 1013.4
20240622181524 88 169 0.0 0.0 0.00 0.00 0.00 44 1013.4
20240622181022 88 163 0.0 1.0 0.00 0.00 0.00 47 1013.4
20240622180520 88 163 0.0 1.0 0.00 0.00 0.00 46 1013.3
20240622180021 87 163 0.0 1.0 0.00 0.00 0.00 45 1013.4
20240622175526 87 163 0.0 1.0 0.00 0.00 0.00 46 1013.4
20240622175018 87 163 0.0 1.0 0.00 0.00 0.00 48 1013.3
20240622174516 86 151 0.0 1.0 0.00 0.00 0.00 49 1013.4
20240622174019 86 151 0.0 1.0 0.00 0.00 0.00 47 1013.4
20240622173516 85 146 0.0 1.0 0.00 0.00 0.00 43 1013.4
20240622173013 85 163 0.0 0.0 0.00 0.00 0.00 52 1013.4
20240622172013 83 163 0.0 0.0 0.00 0.00 0.00 53 1013.4
20240622171522 82 163 0.0 1.0 0.00 0.00 0.00 53 1013.4
20240622171011 81 163 0.0 1.0 0.00 0.00 0.00 54 1013.4
20240622170510 81 146 0.0 0.0 0.00 0.00 0.00 53 1013.4
20240622170009 81 40 0.0 0.0 0.00 0.00 0.00 53 1013.4
20240622165508 81 40 0.0 0.0 0.00 0.00 0.00 54 1013.4
20240622165008 81 40 0.0 0.0 0.00 0.00 0.00 53 1013.4
20240622164509 81 40 0.0 0.0 0.00 0.00 0.00 54 1013.3
20240622164006 81 40 0.0 0.0 0.00 0.00 0.00 54 1013.4
20240622163505 80 40 0.0 0.0 0.00 0.00 0.00 55 1013.4
20240622163005 79 40 0.0 0.0 0.00 0.00 0.00 52 1013.4
20240622162004 79 40 0.0 0.0 0.00 0.00 0.00 55 1013.4
20240622161506 78 40 0.0 0.0 0.00 0.00 0.00 55 1013.4
20240622161003 78 40 0.0 0.0 0.00 0.00 0.00 55 1013.5
20240622160503 78 40 0.0 0.0 0.00 0.00 0.00 55 1013.5
20240622160002 78 40 0.0 0.0 0.00 0.00 0.00 57 1013.5
20240622155607 77 40 0.0 0.0 0.00 0.00 0.00 56 1013.4
20240622155059 76 40 0.0 0.0 0.00 0.00 0.00 57 1013.4
20240622154613 76 40 0.0 0.0 0.00 0.00 0.00 59 1013.3
20240622154059 75 40 0.0 0.0 0.00 0.00 0.00 60 1013.3
20240622153555 74 40 0.0 0.0 0.00 0.00 0.00 62 1013.3
20240622153054 74 40 0.0 0.0 0.00 0.00 0.00 62 1013.2
20240622152051 73 39 0.0 0.0 0.00 0.00 0.00 64 1013.3
20240622151551 72 39 0.0 1.0 0.00 0.00 0.00 65 1013.3
20240622151052 72 39 0.0 1.0 0.00 0.00 0.00 65 1013.2
20240622150550 72 45 0.0 0.0 0.00 0.00 0.00 65 1013.2
20240622150053 72 50 0.0 0.0 0.00 0.00 0.00 64 1013.1
20240622145549 72 60 0.0 0.0 0.00 0.00 0.00 65 1013.2
20240622145053 72 60 0.0 0.0 0.00 0.00 0.00 66 1013.1
20240622144548 72 60 0.0 0.0 0.00 0.00 0.00 66 1013.1
20240622144047 72 60 0.0 0.0 0.00 0.00 0.00 67 1013.1
20240622143546 72 60 0.0 0.0 0.00 0.00 0.00 67 1013.1
20240622143048 71 60 0.0 0.0 0.00 0.00 0.00 67 1013.0
20240622142044 70 60 0.0 0.0 0.00 0.00 0.00 69 1013.0
20240622141543 70 60 0.0 0.0 0.00 0.00 0.00 70 1013.0
20240622141042 69 60 0.0 0.0 0.00 0.00 0.00 70 1013.0
20240622140540 69 60 0.0 0.0 0.00 0.00 0.00 72 1012.9
20240622140044 68 62 0.0 0.0 0.00 0.00 0.00 75 1012.9
20240622135543 67 62 0.0 0.0 0.00 0.00 0.00 74 1012.9
20240622135039 67 62 0.0 0.0 0.00 0.00 0.00 75 1013.0
20240622134539 67 62 0.0 0.0 0.00 0.00 0.00 76 1012.9
20240622134039 66 62 0.0 0.0 0.00 0.00 0.00 76 1012.9
20240622133539 66 62 0.0 0.0 0.00 0.00 0.00 76 1012.9
20240622133039 66 62 0.0 0.0 0.00 0.00 0.00 76 1012.9
20240622132038 66 62 0.0 0.0 0.00 0.00 0.00 77 1012.7
20240622131538 65 64 0.0 0.0 0.00 0.00 0.00 78 1012.6
20240622131037 65 64 0.0 0.0 0.00 0.00 0.00 79 1012.6
20240622130537 66 64 0.0 0.0 0.00 0.00 0.00 79 1012.7
20240622130053 65 64 0.0 1.0 0.00 0.00 0.00 78 1012.6
20240622125536 65 64 0.0 0.0 0.00 0.00 0.00 78 1012.6
20240622125036 65 64 0.0 0.0 0.00 0.00 0.00 77 1012.7
20240622124537 65 64 0.0 0.0 0.00 0.00 0.00 77 1012.7
20240622124038 65 64 0.0 0.0 0.00 0.00 0.00 77 1012.7
20240622123535 65 64 0.0 0.0 0.00 0.00 0.00 77 1012.7
20240622123040 66 64 0.0 0.0 0.00 0.00 0.00 76 1012.6
20240622122034 66 301 0.0 0.0 0.00 0.00 0.00 72 1012.6
20240622121534 66 301 0.0 0.0 0.00 0.00 0.00 71 1012.6
20240622121033 66 301 0.0 0.0 0.00 0.00 0.00 69 1012.6
20240622120532 66 301 0.0 0.0 0.00 0.00 0.00 66 1012.6
20240622120032 66 301 0.0 0.0 0.00 0.00 0.00 66 1012.5
20240622115532 66 301 0.0 0.0 0.00 0.00 0.00 66 1012.5
20240622115031 66 301 0.0 0.0 0.00 0.00 0.00 66 1012.4
20240622114532 66 301 0.0 0.0 0.00 0.00 0.00 66 1012.4
20240622114034 66 301 0.0 0.0 0.00 0.00 0.00 66 1012.3
20240622113530 66 301 0.0 0.0 0.00 0.00 0.00 67 1012.3
20240622113030 66 301 0.0 0.0 0.00 0.00 0.00 67 1012.2
20240622112029 66 301 0.0 0.0 0.00 0.00 0.00 67 1012.2
20240622111529 66 301 0.0 0.0 0.00 0.00 0.00 67 1012.2
20240622111029 66 301 0.0 0.0 0.00 0.00 0.00 67 1012.2
20240622110527 67 301 0.0 0.0 0.00 0.00 0.00 68 1012.2
20240622110040 67 301 0.0 0.0 0.00 0.00 0.00 68 1012.1
20240622105527 67 287 0.0 0.0 0.00 0.00 0.00 66 1012.1
20240622105027 67 287 0.0 0.0 0.00 0.00 0.00 63 1012.1
20240622104526 67 294 0.0 0.0 0.00 0.00 0.00 61 1012.1
20240622104026 67 294 0.0 2.0 0.00 0.00 0.00 61 1012.1
20240622103525 67 294 0.0 3.0 0.00 0.00 0.00 63 1012.1
20240622103035 67 295 0.0 2.0 0.00 0.00 0.00 61 1012.0
20240622102024 67 295 0.0 0.0 0.00 0.00 0.00 68 1012.1
20240622101525 67 295 0.0 0.0 0.00 0.00 0.00 70 1012.1
20240622101024 67 295 0.0 0.0 0.00 0.00 0.00 73 1012.0
20240622100524 67 295 0.0 0.0 0.00 0.00 0.00 73 1012.1
20240622100025 67 295 0.0 0.0 0.00 0.00 0.00 71 1012.0
20240622095524 67 294 0.0 0.0 0.00 0.00 0.00 70 1012.1
20240622095023 67 296 0.0 0.0 0.00 0.00 0.00 69 1012.1
20240622094521 67 309 0.0 0.0 0.00 0.00 0.00 69 1012.1
20240622094020 67 309 0.0 0.0 0.00 0.00 0.00 67 1012.1
20240622093520 68 309 0.0 0.0 0.00 0.00 0.00 68 1012.1
20240622093019 68 309 0.0 0.0 0.00 0.00 0.00 69 1012.2
20240622092024 68 309 0.0 0.0 0.00 0.00 0.00 68 1012.2
20240622091522 69 309 0.0 0.0 0.00 0.00 0.00 67 1012.2
20240622091021 69 309 0.0 0.0 0.00 0.00 0.00 65 1012.2
20240622090521 69 309 0.0 0.0 0.00 0.00 0.00 64 1012.2
20240622090021 69 309 0.0 0.0 0.00 0.00 0.00 64 1012.2
20240622085521 70 309 0.0 0.0 0.00 0.00 0.00 64 1012.2
20240622085021 70 309 0.0 0.0 0.00 0.00 0.00 65 1012.2
20240622084521 70 309 0.0 0.0 0.00 0.00 0.00 64 1012.1
20240622084021 71 309 0.0 0.0 0.00 0.00 0.00 62 1012.1
20240622083521 71 309 0.0 0.0 0.00 0.00 0.00 61 1012.1
20240622083021 72 309 0.0 0.0 0.00 0.00 0.00 62 1012.2
20240622082025 74 309 0.0 1.0 0.00 0.00 0.00 52 1012.1
20240622081523 74 276 0.0 3.0 0.00 0.00 0.00 48 1012.1
20240622081023 74 304 0.0 5.0 0.00 0.00 0.00 47 1012.0
20240622080522 74 295 0.0 5.0 0.00 0.00 0.00 48 1011.9
20240622080027 74 309 0.0 4.0 0.00 0.00 0.00 48 1011.9
20240622075525 74 305 0.0 4.0 0.00 0.00 0.00 47 1011.9
20240622075022 74 309 0.0 4.0 0.00 0.00 0.00 47 1011.9
20240622074522 74 304 0.0 5.0 0.00 0.00 0.00 47 1011.9
20240622074024 74 313 0.0 5.0 0.00 0.00 0.00 46 1011.9
20240622073523 75 307 0.0 2.0 0.00 0.00 0.00 46 1011.9
20240622073026 75 307 0.0 5.0 0.00 0.00 0.00 47 1011.9
20240622072027 75 297 0.0 5.0 0.00 0.00 0.00 48 1011.9
20240622071526 75 306 0.0 5.0 0.00 0.00 0.00 48 1011.9
20240622071025 76 299 1.0 5.0 0.00 0.00 0.00 48 1011.9
20240622070525 76 294 1.0 8.0 0.00 0.00 0.00 47 1011.9
20240622070030 76 293 2.0 8.0 0.00 0.00 0.00 46 1011.9
20240622065526 76 294 0.0 4.0 0.00 0.00 0.00 47 1011.9
20240622065025 76 310 0.0 5.0 0.00 0.00 0.00 47 1011.8
20240622064531 77 312 0.0 5.0 0.00 0.00 0.00 47 1011.8
20240622064026 77 302 1.0 5.0 0.00 0.00 0.00 47 1011.8
20240622063525 77 289 0.0 7.0 0.00 0.00 0.00 48 1011.8
20240622063025 77 299 1.0 6.0 0.00 0.00 0.00 49 1011.8
20240622062035 79 319 0.0 7.0 0.00 0.00 0.00 46 1011.8
20240622061543 79 303 0.0 8.0 0.00 0.00 0.00 40 1011.7
20240622061035 79 201 1.0 8.0 0.00 0.00 0.00 38 1011.7
20240622060538 79 174 0.0 7.0 0.00 0.00 0.00 36 1011.6
20240622060047 79 274 1.0 7.0 0.00 0.00 0.00 38 1011.7
20240622055535 79 295 0.0 6.0 0.00 0.00 0.00 42 1011.7
20240622055035 79 311 0.0 5.0 0.00 0.00 0.00 37 1011.7
20240622054535 79 197 0.0 6.0 0.00 0.00 0.00 37 1011.7
20240622054035 79 288 0.0 6.0 0.00 0.00 0.00 40 1011.7
20240622053534 79 311 0.0 6.0 0.00 0.00 0.00 38 1011.7
20240622053034 80 314 0.0 5.0 0.00 0.00 0.00 42 1011.7
20240622052031 79 324 0.0 6.0 0.00 0.00 0.00 36 1011.6
20240622051535 80 317 0.0 6.0 0.00 0.00 0.00 39 1011.6
20240622051032 80 247 0.0 6.0 0.00 0.00 0.00 37 1011.6
20240622050531 80 244 1.0 6.0 0.00 0.00 0.00 42 1011.6
20240622050038 80 289 0.0 4.0 0.00 0.00 0.00 37 1011.5
20240622045533 80 295 0.0 3.0 0.00 0.00 0.00 38 1011.5
20240622045031 80 297 0.0 3.0 0.00 0.00 0.00 37 1011.4
20240622044532 81 271 0.0 5.0 0.00 0.00 0.00 42 1011.3
20240622044033 81 319 0.0 7.0 0.00 0.00 0.00 37 1011.3
20240622043531 81 315 0.0 5.0 0.00 0.00 0.00 36 1011.3
20240622043034 81 248 0.0 7.0 0.00 0.00 0.00 34 1011.2
20240622042029 82 303 0.0 7.0 0.00 0.00 0.00 38 1011.1
20240622041529 83 305 0.0 4.0 0.00 0.00 0.00 36 1011.1
20240622041031 83 288 0.0 7.0 0.00 0.00 0.00 31 1011.0
20240622040529 83 217 1.0 7.0 0.00 0.00 0.00 31 1011.0
20240622040029 83 226 0.0 7.0 0.00 0.00 0.00 33 1011.1
20240622035530 83 267 0.0 7.0 0.00 0.00 0.00 32 1011.0
20240622035031 84 207 1.0 7.0 0.00 0.00 0.00 30 1011.0
20240622034529 84 215 1.0 7.0 0.00 0.00 0.00 31 1011.1
20240622034029 84 188 1.0 8.0 0.00 0.00 0.00 31 1011.0
20240622033529 84 235 1.0 9.0 0.00 0.00 0.00 29 1011.0
20240622033031 84 199 2.0 10.0 0.00 0.00 0.00 30 1010.9
20240622032034 85 179 3.0 12.0 0.00 0.00 0.00 31 1010.9
20240622031534 85 211 5.0 12.0 0.00 0.00 0.00 31 1010.9
20240622031035 85 166 4.0 12.0 0.00 0.00 0.00 31 1010.9
20240622030534 85 193 2.0 14.0 0.00 0.00 0.00 30 1010.9
20240622030032 86 159 3.0 14.0 0.00 0.00 0.00 30 1010.9
20240622025533 86 200 2.0 10.0 0.00 0.00 0.00 31 1010.8
20240622025031 86 197 1.0 8.0 0.00 0.00 0.00 32 1010.8
20240622024535 86 197 1.0 8.0 0.00 0.00 0.00 32 1010.8
20240622024035 86 236 1.0 7.0 0.00 0.00 0.00 32 1010.7
20240622023535 86 193 1.0 7.0 0.00 0.00 0.00 33 1010.8
20240622023031 87 222 1.0 9.0 0.00 0.00 0.00 34 1010.7
20240622022043 87 221 3.0 9.0 0.00 0.00 0.00 33 1010.6
20240622021544 87 230 1.0 7.0 0.00 0.00 0.00 33 1010.6
20240622021043 87 179 2.0 8.0 0.00 0.00 0.00 33 1010.6
20240622020543 87 190 0.0 7.0 0.00 0.00 0.00 35 1010.6
20240622020043 88 217 1.0 6.0 0.00 0.00 0.00 37 1010.6
20240622015543 89 191 0.0 5.0 0.00 0.00 0.00 35 1010.6
20240622015046 89 151 0.0 5.0 0.00 0.00 0.00 33 1010.5
20240622014543 90 188 0.0 5.0 0.00 0.00 0.00 33 1010.5
20240622014043 90 261 0.0 7.0 0.00 0.00 0.00 33 1010.5
20240622013542 90 162 0.0 7.0 0.00 0.00 0.00 32 1010.4
20240622013042 91 185 0.0 5.0 0.00 0.00 0.00 32 1010.5
20240622012014 91 228 0.0 8.0 0.00 0.00 0.00 32 1010.4
20240622011525 91 188 1.0 8.0 0.00 0.00 0.00 31 1010.4
20240622011015 91 265 0.0 3.0 0.00 0.00 0.00 33 1010.5
20240622010517 92 334 0.0 3.0 0.00 0.00 0.00 36 1010.4
20240622010014 92 214 0.0 4.0 0.00 0.00 0.00 34 1010.4
20240622005517 92 182 0.0 5.0 0.00 0.00 0.00 35 1010.5
20240622005013 93 188 0.0 5.0 0.00 0.00 0.00 35 1010.5
20240622004513 93 259 0.0 5.0 0.00 0.00 0.00 36 1010.5
20240622004013 93 261 0.0 5.0 0.00 0.00 0.00 32 1010.5
20240622003512 93 178 0.0 7.0 0.00 0.00 0.00 33 1010.6
20240622003012 93 248 0.0 7.0 0.00 0.00 0.00 32 1010.5
20240622002059 93 288 1.0 8.0 0.00 0.00 0.00 30 1010.6
20240622001603 93 285 0.0 5.0 0.00 0.00 0.00 29 1010.7
20240622001057 93 301 0.0 6.0 0.00 0.00 0.00 30 1010.7
20240622000559 93 136 0.0 6.0 0.00 0.00 0.00 29 1010.6
20240622000100 93 287 0.0 5.0 0.00 0.00 0.00 28 1010.7
20240621235556 93 307 1.0 5.0 0.00 0.00 0.00 28 1010.7
20240621235055 93 299 0.0 4.0 0.00 0.00 0.00 29 1010.7
20240621234555 93 304 0.0 4.0 0.00 0.00 0.00 27 1010.8
20240621234055 93 321 0.0 4.0 0.00 0.00 0.00 23 1010.8
20240621233555 93 309 0.0 4.0 0.00 0.00 0.00 23 1010.9
20240621233059 94 327 0.0 5.0 0.00 0.00 0.00 25 1010.9
20240621232010 94 300 0.0 6.0 0.00 0.00 0.00 23 1010.9
20240621231512 94 310 0.0 5.0 0.00 0.00 0.00 24 1010.9
20240621231008 95 264 0.0 5.0 0.00 0.00 0.00 24 1011.0
20240621230508 95 189 0.0 5.0 0.00 0.00 0.00 26 1011.1
20240621230008 96 319 0.0 3.0 0.00 0.00 0.00 25 1011.1
20240621225508 96 282 0.0 2.0 0.00 0.00 0.00 25 1011.2
20240621225006 95 329 0.0 2.0 0.00 0.00 0.00 25 1011.1
20240621224505 95 294 0.0 3.0 0.00 0.00 0.00 25 1011.2
20240621224005 95 298 0.0 3.0 0.00 0.00 0.00 25 1011.3
20240621223504 94 309 0.0 5.0 0.00 0.00 0.00 26 1011.3